AIC1UB EDDK-LOWI

Flight info

Callsign AIC1UB
Flight time 0h 56m
Altitude 34000
Route KUMIK1R KUMIK Y854 BOMBI DCT GIGET DCT ABUKA/N0437F350 DCT UTABA M738 MADEB MADEB1B
Aircraft A320/M-SDE3FGHIRWY/LB1

Departure

Time 2026-05-06 19:24
Airport Cologne Bonn Airport (EDDK)

Arrival

Time 2026-05-06 20:21
Airport Innsbruck Airport (LOWI)
Time Latitude Longitude Altitude Speed Heading
2026-05-06 18:50 50.87694 7.12389 232 ft 0 kts 288°
2026-05-06 19:06 50.87690 7.12408 230 ft 2 kts 288°
2026-05-06 19:07 50.87685 7.12433 233 ft 2 kts 288°
2026-05-06 19:07 50.87680 7.12458 233 ft 2 kts 320°
2026-05-06 19:07 50.87664 7.12469 234 ft 2 kts 346°
2026-05-06 19:07 50.87648 7.12475 233 ft 2 kts 346°
2026-05-06 19:08 50.87637 7.12480 232 ft 0 kts 16°
2026-05-06 19:09 50.87657 7.12492 231 ft 8 kts 20°
2026-05-06 19:09 50.87741 7.12540 232 ft 16 kts 34°
2026-05-06 19:10 50.87745 7.12731 230 ft 23 kts 132°
2026-05-06 19:10 50.87610 7.12928 230 ft 28 kts 137°
2026-05-06 19:10 50.87466 7.13137 232 ft 29 kts 137°
2026-05-06 19:10 50.87330 7.13334 234 ft 2 kts 139°
2026-05-06 19:13 50.87299 7.13377 235 ft 18 kts 139°
2026-05-06 19:13 50.87172 7.13562 238 ft 27 kts 138°
2026-05-06 19:14 50.87035 7.13761 242 ft 27 kts 137°
2026-05-06 19:14 50.86895 7.13964 243 ft 28 kts 139°
2026-05-06 19:14 50.86756 7.14132 251 ft 20 kts 176°
2026-05-06 19:14 50.86704 7.14181 254 ft 6 kts 136°
2026-05-06 19:15 50.86683 7.14211 256 ft 2 kts 139°
2026-05-06 19:15 50.86681 7.14213 256 ft 0 kts 138°
2026-05-06 19:15 50.86642 7.14270 258 ft 19 kts 137°
2026-05-06 19:15 50.86545 7.14412 258 ft 19 kts 137°
2026-05-06 19:16 50.86428 7.14579 263 ft 25 kts 138°
2026-05-06 19:16 50.86291 7.14779 268 ft 27 kts 136°
2026-05-06 19:16 50.86151 7.14980 272 ft 27 kts 137°
2026-05-06 19:16 50.86012 7.15181 277 ft 27 kts 137°
2026-05-06 19:17 50.85876 7.15378 285 ft 26 kts 137°
2026-05-06 19:17 50.85748 7.15565 295 ft 24 kts 137°
2026-05-06 19:17 50.85627 7.15738 300 ft 23 kts 137°
2026-05-06 19:17 50.85506 7.15915 299 ft 24 kts 137°
2026-05-06 19:18 50.85389 7.16086 303 ft 15 kts 136°
2026-05-06 19:18 50.85344 7.16199 307 ft 10 kts 106°
2026-05-06 19:18 50.85338 7.16281 308 ft 7 kts 81°
2026-05-06 19:18 50.85373 7.16433 311 ft 12 kts 48°
2026-05-06 19:19 50.85376 7.16438 311 ft 0 kts 47°
2026-05-06 19:19 50.85381 7.16445 311 ft 6 kts 47°
2026-05-06 19:20 50.85426 7.16494 314 ft 0 kts 26°
2026-05-06 19:22 50.85443 7.16506 314 ft 11 kts 21°
2026-05-06 19:22 50.85564 7.16495 310 ft 18 kts 335°
2026-05-06 19:22 50.85631 7.16410 310 ft 1 kts 317°
2026-05-06 19:23 50.85632 7.16408 310 ft 0 kts 316°
2026-05-06 19:24 50.85673 7.16345 311 ft 38 kts 316°
2026-05-06 19:24 50.86063 7.15783 292 ft 112 kts 317°
2026-05-06 19:24 50.86781 7.14746 402 ft 156 kts 319°
2026-05-06 19:24 50.87648 7.13572 943 ft 173 kts 321°
2026-05-06 19:25 50.88613 7.12326 1652 ft 184 kts 321°
2026-05-06 19:25 50.89773 7.11269 2150 ft 202 kts 352°
2026-05-06 19:25 50.91157 7.11644 2958 ft 207 kts 21°
2026-05-06 19:25 50.92470 7.12622 3859 ft 211 kts 27°
2026-05-06 19:26 50.93601 7.14138 4715 ft 220 kts 51°
2026-05-06 19:26 50.94369 7.16402 5194 ft 246 kts 63°
2026-05-06 19:26 50.95132 7.18960 5801 ft 264 kts 62°
2026-05-06 19:26 50.95951 7.21621 6666 ft 271 kts 62°
2026-05-06 19:27 50.96792 7.24322 7631 ft 273 kts 61°
2026-05-06 19:27 50.97643 7.27035 8623 ft 275 kts 61°
2026-05-06 19:27 50.98502 7.29753 9609 ft 277 kts 60°
2026-05-06 19:27 50.99383 7.32528 10301 ft 290 kts 60°
2026-05-06 19:28 51.00328 7.35495 10642 ft 313 kts 61°
2026-05-06 19:28 51.01142 7.38801 11258 ft 327 kts 73°
2026-05-06 19:28 51.01475 7.42403 12013 ft 336 kts 86°
2026-05-06 19:28 51.01279 7.46137 12787 ft 344 kts 100°
2026-05-06 19:29 51.00611 7.49825 13578 ft 350 kts 106°
2026-05-06 19:29 50.99877 7.53543 14286 ft 355 kts 106°
2026-05-06 19:29 50.99138 7.57305 14982 ft 359 kts 107°
2026-05-06 19:29 50.98394 7.61088 15639 ft 364 kts 108°
2026-05-06 19:30 50.97627 7.64976 16330 ft 369 kts 108°
2026-05-06 19:30 50.96855 7.68882 17010 ft 373 kts 108°
2026-05-06 19:30 50.96076 7.72830 17696 ft 377 kts 108°
2026-05-06 19:30 50.95287 7.76819 18337 ft 381 kts 108°
2026-05-06 19:31 50.94431 7.80821 18932 ft 384 kts 114°
2026-05-06 19:31 50.93188 7.84580 19542 ft 386 kts 124°
2026-05-06 19:31 50.90198 7.91725 20790 ft 391 kts 125°
2026-05-06 19:32 50.88687 7.95329 21396 ft 394 kts 125°
2026-05-06 19:32 50.87163 7.98964 22013 ft 397 kts 125°
2026-05-06 19:32 50.85630 8.02625 22612 ft 400 kts 126°
2026-05-06 19:32 50.83919 8.06113 23220 ft 401 kts 135°
2026-05-06 19:33 50.81853 8.09080 23733 ft 402 kts 145°
2026-05-06 19:33 50.79523 8.11522 24238 ft 402 kts 150°
2026-05-06 19:33 50.77146 8.13906 24745 ft 404 kts 150°
2026-05-06 19:33 50.74770 8.16296 25244 ft 406 kts 149°
2026-05-06 19:34 50.72373 8.18710 25725 ft 407 kts 149°
2026-05-06 19:34 50.69980 8.21119 26208 ft 409 kts 149°
2026-05-06 19:34 50.67575 8.23532 26659 ft 410 kts 150°
2026-05-06 19:34 50.65156 8.25951 27109 ft 412 kts 150°
2026-05-06 19:35 50.62763 8.28344 27539 ft 414 kts 150°
2026-05-06 19:35 50.60328 8.30781 27995 ft 415 kts 150°
2026-05-06 19:35 50.57883 8.33229 28441 ft 417 kts 149°
2026-05-06 19:35 50.55435 8.35682 28910 ft 417 kts 149°
2026-05-06 19:36 50.52983 8.38132 29340 ft 418 kts 149°
2026-05-06 19:36 50.50521 8.40590 29739 ft 419 kts 149°
2026-05-06 19:36 50.48049 8.43050 30082 ft 421 kts 149°
2026-05-06 19:36 50.45568 8.45508 30383 ft 423 kts 149°
2026-05-06 19:37 50.43066 8.47981 30671 ft 425 kts 150°
2026-05-06 19:37 50.40557 8.50459 30934 ft 427 kts 150°
2026-05-06 19:37 50.38034 8.52948 31203 ft 429 kts 150°
2026-05-06 19:37 50.36339 8.54552 31385 ft 430 kts 152°
2026-05-06 19:38 50.32835 8.57617 31807 ft 430 kts 154°
2026-05-06 19:38 50.30195 8.59788 32209 ft 428 kts 155°
2026-05-06 19:38 50.27546 8.61920 32615 ft 427 kts 155°
2026-05-06 19:38 50.24904 8.64048 32819 ft 427 kts 155°
2026-05-06 19:39 50.19653 8.68351 32853 ft 426 kts 154°
2026-05-06 19:39 50.14423 8.72723 32859 ft 426 kts 154°
2026-05-06 19:40 50.09198 8.76960 33198 ft 425 kts 160°
2026-05-06 19:40 50.06403 8.78377 33610 ft 420 kts 169°
2026-05-06 19:40 50.03521 8.79043 33990 ft 417 kts 178°
2026-05-06 19:41 50.00640 8.78971 34289 ft 415 kts 187°
2026-05-06 19:41 49.97777 8.78382 34549 ft 415 kts 188°
2026-05-06 19:41 49.94905 8.77774 34774 ft 417 kts 188°
2026-05-06 19:41 49.92040 8.77180 34820 ft 413 kts 188°
2026-05-06 19:42 49.86618 8.76074 34832 ft 407 kts 188°
2026-05-06 19:42 49.80999 8.74924 34839 ft 407 kts 188°
2026-05-06 19:43 49.75377 8.73766 34846 ft 407 kts 188°
2026-05-06 19:43 49.69758 8.72603 34853 ft 407 kts 188°
2026-05-06 19:44 49.64152 8.71456 34851 ft 407 kts 188°
2026-05-06 19:44 49.58522 8.70326 34850 ft 407 kts 188°
2026-05-06 19:45 49.52902 8.69201 34848 ft 407 kts 188°
2026-05-06 19:45 49.47263 8.68692 34848 ft 408 kts 175°
2026-05-06 19:46 49.41778 8.71035 34841 ft 412 kts 159°
2026-05-06 19:46 49.36507 8.74547 34837 ft 413 kts 159°
2026-05-06 19:47 49.31214 8.78038 34834 ft 414 kts 159°
2026-05-06 19:47 49.25915 8.81525 34833 ft 414 kts 159°
2026-05-06 19:48 49.20613 8.85014 34828 ft 415 kts 159°
2026-05-06 19:48 49.15339 8.88479 34815 ft 415 kts 159°
2026-05-06 19:49 49.10032 8.91956 34829 ft 414 kts 159°
2026-05-06 19:49 49.04735 8.95408 34833 ft 414 kts 159°
2026-05-06 19:50 48.99441 8.98847 34851 ft 413 kts 159°
2026-05-06 19:50 48.94146 9.02284 34847 ft 413 kts 160°
2026-05-06 19:51 48.88866 9.05708 34836 ft 414 kts 160°
2026-05-06 19:51 48.83564 9.09138 34849 ft 414 kts 160°
2026-05-06 19:52 48.78261 9.12562 34849 ft 414 kts 160°
2026-05-06 19:52 48.73003 9.15949 34850 ft 414 kts 160°
2026-05-06 19:53 48.67655 9.19378 34831 ft 414 kts 160°
2026-05-06 19:53 48.62389 9.22743 34840 ft 413 kts 160°
2026-05-06 19:54 48.57088 9.26130 34849 ft 413 kts 160°
2026-05-06 19:54 48.51794 9.29502 34857 ft 413 kts 160°
2026-05-06 19:55 48.46495 9.32881 34871 ft 413 kts 160°
2026-05-06 19:55 48.41200 9.36235 34878 ft 413 kts 160°
2026-05-06 19:56 48.35901 9.39589 34876 ft 413 kts 160°
2026-05-06 19:56 48.30637 9.42922 34884 ft 413 kts 160°
2026-05-06 19:57 48.26197 9.45725 34890 ft 412 kts 162°
2026-05-06 19:57 48.20765 9.48222 34861 ft 409 kts 167°
2026-05-06 19:58 48.15288 9.50590 34879 ft 409 kts 167°
2026-05-06 19:58 48.09809 9.52970 34547 ft 410 kts 167°
2026-05-06 19:59 48.07067 9.54160 34327 ft 410 kts 167°
2026-05-06 19:59 48.04329 9.55352 34102 ft 410 kts 166°
2026-05-06 19:59 48.01669 9.56982 33853 ft 415 kts 156°
2026-05-06 19:59 47.99214 9.59291 33584 ft 419 kts 149°
2026-05-06 20:00 47.96871 9.61847 33300 ft 416 kts 149°
2026-05-06 20:00 47.94550 9.64372 32750 ft 411 kts 149°
2026-05-06 20:00 47.92242 9.66871 32172 ft 408 kts 150°
2026-05-06 20:00 47.89947 9.69343 31591 ft 404 kts 150°
2026-05-06 20:01 47.87705 9.71755 31053 ft 401 kts 150°
2026-05-06 20:01 47.85446 9.74185 30499 ft 398 kts 151°
2026-05-06 20:01 47.83214 9.76586 29920 ft 395 kts 152°
2026-05-06 20:01 47.80999 9.78965 29377 ft 390 kts 151°
2026-05-06 20:02 47.78808 9.81318 28855 ft 385 kts 152°
2026-05-06 20:02 47.76650 9.83638 28355 ft 380 kts 151°
2026-05-06 20:02 47.74540 9.85900 27855 ft 376 kts 151°
2026-05-06 20:02 47.72430 9.88155 27385 ft 371 kts 151°
2026-05-06 20:03 47.70345 9.90381 26925 ft 367 kts 151°
2026-05-06 20:03 47.68279 9.92587 26461 ft 364 kts 150°
2026-05-06 20:03 47.66232 9.94770 26013 ft 360 kts 150°
2026-05-06 20:03 47.64199 9.96936 25553 ft 357 kts 150°
2026-05-06 20:04 47.62183 9.99080 25089 ft 355 kts 150°
2026-05-06 20:04 47.60184 10.01205 24630 ft 352 kts 149°
2026-05-06 20:04 47.58196 10.03316 24158 ft 350 kts 149°
2026-05-06 20:04 47.56208 10.05420 23377 ft 355 kts 149°
2026-05-06 20:05 47.54196 10.07547 22258 ft 354 kts 148°
2026-05-06 20:05 47.52196 10.09668 21223 ft 352 kts 148°
2026-05-06 20:05 47.50204 10.11773 20219 ft 351 kts 148°
2026-05-06 20:05 47.48220 10.13865 19248 ft 349 kts 148°
2026-05-06 20:06 47.46265 10.15926 18314 ft 348 kts 147°
2026-05-06 20:06 47.44309 10.17991 17491 ft 341 kts 147°
2026-05-06 20:06 47.42378 10.19938 16871 ft 329 kts 150°
2026-05-06 20:06 47.40471 10.21724 16271 ft 322 kts 152°
2026-05-06 20:07 47.38572 10.23430 15683 ft 317 kts 152°
2026-05-06 20:07 47.36697 10.25093 15104 ft 310 kts 153°
2026-05-06 20:07 47.34886 10.26760 14538 ft 304 kts 147°
2026-05-06 20:07 47.33354 10.28904 14043 ft 302 kts 131°
2026-05-06 20:08 47.32301 10.31474 13921 ft 286 kts 117°
2026-05-06 20:08 47.31717 10.34245 13917 ft 283 kts 105°
2026-05-06 20:08 47.31332 10.37091 13922 ft 282 kts 105°
2026-05-06 20:08 47.30941 10.39933 13919 ft 282 kts 105°
2026-05-06 20:09 47.30548 10.42765 13918 ft 282 kts 106°
2026-05-06 20:09 47.30163 10.45547 13917 ft 272 kts 106°
2026-05-06 20:09 47.29795 10.48215 13912 ft 258 kts 106°
2026-05-06 20:09 47.29455 10.50703 13895 ft 244 kts 107°
2026-05-06 20:10 47.29130 10.53085 13895 ft 231 kts 107°
2026-05-06 20:10 47.28818 10.55374 13887 ft 218 kts 107°
2026-05-06 20:10 47.28641 10.57521 13889 ft 214 kts 98°
2026-05-06 20:10 47.28667 10.59758 13540 ft 220 kts 92°
2026-05-06 20:11 47.28757 10.62017 13184 ft 223 kts 91°
2026-05-06 20:11 47.28850 10.64302 12966 ft 222 kts 90°
2026-05-06 20:11 47.28950 10.66599 12583 ft 227 kts 92°
2026-05-06 20:11 47.29005 10.68932 12175 ft 231 kts 93°
2026-05-06 20:12 47.29021 10.71340 11748 ft 239 kts 92°
2026-05-06 20:12 47.29076 10.73771 11357 ft 233 kts 90°
2026-05-06 20:12 47.29191 10.76156 10801 ft 233 kts 88°
2026-05-06 20:12 47.29401 10.78519 10255 ft 232 kts 84°
2026-05-06 20:13 47.29636 10.80824 9766 ft 228 kts 85°
2026-05-06 20:13 47.29869 10.83100 9227 ft 223 kts 84°
2026-05-06 20:13 47.30126 10.85350 8618 ft 222 kts 84°
2026-05-06 20:13 47.30367 10.87577 8061 ft 218 kts 83°
2026-05-06 20:14 47.30553 10.89778 7510 ft 215 kts 86°
2026-05-06 20:14 47.30649 10.91961 6984 ft 211 kts 91°
2026-05-06 20:14 47.30674 10.94038 6724 ft 193 kts 89°
2026-05-06 20:14 47.30711 10.95944 6489 ft 181 kts 89°
2026-05-06 20:15 47.30738 10.97787 6245 ft 178 kts 89°
2026-05-06 20:15 47.30764 10.99596 6032 ft 176 kts 88°
2026-05-06 20:15 47.30805 11.01396 5835 ft 175 kts 88°
2026-05-06 20:15 47.30854 11.03183 5666 ft 174 kts 87°
2026-05-06 20:16 47.30836 11.04962 5518 ft 173 kts 94°
2026-05-06 20:16 47.30695 11.06719 5328 ft 172 kts 99°
2026-05-06 20:16 47.30420 11.08360 5134 ft 162 kts 109°
2026-05-06 20:16 47.30109 11.09850 5135 ft 146 kts 106°
2026-05-06 20:17 47.29783 11.11234 4971 ft 141 kts 111°
2026-05-06 20:17 47.29408 11.12559 4767 ft 137 kts 113°
2026-05-06 20:17 47.28993 11.13844 4568 ft 139 kts 117°
2026-05-06 20:17 47.28580 11.15138 4362 ft 140 kts 114°
2026-05-06 20:18 47.28159 11.16434 4170 ft 140 kts 116°
2026-05-06 20:18 47.27707 11.17711 3899 ft 141 kts 117°
2026-05-06 20:18 47.27303 11.19035 3658 ft 142 kts 110°
2026-05-06 20:18 47.26939 11.20385 3515 ft 142 kts 111°
2026-05-06 20:19 47.26566 11.21731 3378 ft 142 kts 110°
2026-05-06 20:19 47.26221 11.23088 3216 ft 141 kts 110°
2026-05-06 20:19 47.25896 11.24456 3085 ft 142 kts 106°
2026-05-06 20:19 47.25675 11.25866 2830 ft 140 kts 100°
2026-05-06 20:20 47.25499 11.27269 2712 ft 139 kts 99°
2026-05-06 20:20 47.25450 11.28666 2527 ft 139 kts 88°
2026-05-06 20:20 47.25570 11.30079 2357 ft 139 kts 85°
2026-05-06 20:20 47.25714 11.31475 2165 ft 136 kts 84°
2026-05-06 20:21 47.25859 11.32856 1969 ft 136 kts 85°
2026-05-06 20:21 47.26003 11.34131 1908 ft 110 kts 89°
2026-05-06 20:21 47.26072 11.34876 1899 ft 46 kts 82°
2026-05-06 20:21 47.26107 11.35223 1907 ft 21 kts 84°
2026-05-06 20:22 47.26049 11.35262 1901 ft 11 kts 171°
2026-05-06 20:22 47.25971 11.35280 1907 ft 12 kts 171°
2026-05-06 20:22 47.25903 11.35273 1907 ft 8 kts 242°
2026-05-06 20:22 47.25893 11.35193 1899 ft 7 kts 261°
2026-05-06 20:23 47.25869 11.35149 1901 ft 5 kts 177°
2026-05-06 20:23 47.25838 11.35167 1902 ft 5 kts 170°